When you browse on this site, cookies collect data to enhance your experience and personalize the content and advertising you see.
Visit our Privacy Policy to learn more. By continuing to use the site, you agree to this use of cookies and data.
  • In Spain
  • List of Countries
  • For 7 days
  • Water Temperature
  • Weather Map
  • Weather Widgets
  • user-avatar
    Login

    Hourly Weather Prutz

    Today, 1 April, Wednesday

    Time Temperature Precipitation Wind Pressure Humidity
    00:00 -11°C° 0 mm 1 mps 631 mmHg 72%
    01:00 -11°C° 0 mm 1 mps 631 mmHg 64%
    02:00 -11°C° 0 mm 1 mps 631 mmHg 58%
    03:00 -10°C° 0 mm 1 mps 630 mmHg 53%
    04:00 -10°C° 0 mm 1 mps 630 mmHg 47%
    05:00 -9°C° 0 mm 1 mps 630 mmHg 45%
    06:00 -8°C° 0 mm 1 mps 631 mmHg 42%
    07:00 -6°C° 0 mm 1 mps 631 mmHg 44%
    08:00 -2°C° 0 mm 1 mps 632 mmHg 44%
    09:00 0°C° 0 mm 1 mps 632 mmHg 44%
    10:00 +3°C° 0 mm 1 mps 633 mmHg 44%
    11:00 +3°C° 0 mm 1 mps 632 mmHg 50%
    12:00 +4°C° 0 mm 1 mps 632 mmHg 56%
    13:00 +4°C° 0 mm 1 mps 632 mmHg 63%
    14:00 +4°C° 0 mm 1 mps 632 mmHg 65%
    15:00 +4°C° 0 mm 1 mps 631 mmHg 68%
    16:00 +4°C° 0 mm 1 mps 631 mmHg 70%
    17:00 +1°C° 0 mm 1 mps 630 mmHg 77%
    18:00 -1°C° 0 mm 1 mps 629 mmHg 84%
    19:00 -4°C° 0 mm 0 mps 628 mmHg 90%
    20:00 -4°C° 0 mm 1 mps 628 mmHg 87%
    21:00 -4°C° 0 mm 1 mps 629 mmHg 84%
    22:00 -4°C° 0 mm 1 mps 629 mmHg 81%
    23:00 -4°C° 0 mm 1 mps 629 mmHg 77%

    Tomorrow, 2 April, Thursday

    Time Temperature Precipitation Wind Pressure Humidity
    00:00 -6°C° 0 mm 1 mps 628 mmHg 74%
    01:00 -6°C° 0 mm 1 mps 628 mmHg 70%
    02:00 -6°C° 0 mm 1 mps 628 mmHg 68%
    03:00 -6°C° 0 mm 1 mps 628 mmHg 66%
    04:00 -6°C° 0 mm 1 mps 627 mmHg 63%
    05:00 -4°C° 0 mm 1 mps 627 mmHg 62%
    06:00 -4°C° 0 mm 1 mps 628 mmHg 61%
    07:00 -3°C° 0 mm 1 mps 628 mmHg 60%
    08:00 -1°C° 0 mm 1 mps 628 mmHg 58%
    09:00 +1°C° 0 mm 1 mps 628 mmHg 57%
    10:00 +3°C° 0 mm 1 mps 629 mmHg 56%
    11:00 +4°C° 0 mm 1 mps 629 mmHg 59%
    12:00 +4°C° 0 mm 1 mps 629 mmHg 62%
    13:00 +5°C° 0 mm 1 mps 628 mmHg 65%
    14:00 +5°C° 0 mm 1 mps 628 mmHg 67%
    15:00 +5°C° 0 mm 1 mps 627 mmHg 69%
    16:00 +5°C° 0 mm 1 mps 627 mmHg 71%
    17:00 +3°C° 0 mm 1 mps 627 mmHg 77%
    18:00 +1°C° 0 mm 1 mps 626 mmHg 83%
    19:00 -1°C° 0 mm 1 mps 626 mmHg 89%
    20:00 -2°C° 0 mm 1 mps 626 mmHg 89%
    21:00 -2°C° 0 mm 1 mps 626 mmHg 89%
    22:00 -3°C° 0 mm 1 mps 626 mmHg 89%
    23:00 -3°C° 0 mm 1 mps 626 mmHg 89%

    Day after tomorrow, 3 April, Friday

    Time Temperature Precipitation Wind Pressure Humidity
    00:00 -3°C° 0 mm 1 mps 626 mmHg 89%
    01:00 -3°C° 0 mm 1 mps 626 mmHg 89%
    02:00 -4°C° 0 mm 1 mps 626 mmHg 89%
    03:00 -4°C° 0 mm 1 mps 626 mmHg 90%
    04:00 -4°C° 0 mm 1 mps 626 mmHg 90%
    05:00 -4°C° 0 mm 1 mps 627 mmHg 89%
    06:00 -3°C° 0 mm 1 mps 627 mmHg 89%
    07:00 -3°C° 0 mm 1 mps 628 mmHg 89%
    08:00 -1°C° 0 mm 1 mps 628 mmHg 86%
    09:00 0°C° 0 mm 1 mps 628 mmHg 84%
    10:00 +2°C° 0 mm 1 mps 629 mmHg 81%
    11:00 +2°C° 0 mm 1 mps 629 mmHg 80%
    12:00 +3°C° 0 mm 1 mps 629 mmHg 78%
    13:00 +3°C° 0 mm 1 mps 629 mmHg 77%
    14:00 +3°C° 0 mm 1 mps 629 mmHg 78%
    15:00 +3°C° 0 mm 1 mps 629 mmHg 79%
    16:00 +3°C° 0 mm 1 mps 629 mmHg 80%
    17:00 +2°C° 0 mm 1 mps 629 mmHg 84%
    18:00 +1°C° 0 mm 1 mps 629 mmHg 89%
    19:00 0°C° 0 mm 1 mps 629 mmHg 93%
    20:00 0°C° 0 mm 1 mps 630 mmHg 93%
    21:00 -2°C° 0 mm 0 mps 630 mmHg 94%
    22:00 -2°C° 0 mm 0 mps 631 mmHg 94%
    23:00 -2°C° 0 mm 0 mps 631 mmHg 93%

    4 April, Saturday

    Time Temperature Precipitation Wind Pressure Humidity
    00:00 -3°C° 0 mm 0 mps 631 mmHg 91%
    01:00 -3°C° 0 mm 0 mps 631 mmHg 90%
    02:00 -4°C° 0 mm 0 mps 631 mmHg 88%
    03:00 -4°C° 0 mm 0 mps 631 mmHg 87%
    04:00 -4°C° 0 mm 0 mps 631 mmHg 86%
    05:00 -3°C° 0 mm 1 mps 631 mmHg 84%
    06:00 -2°C° 0 mm 1 mps 632 mmHg 81%
    07:00 -2°C° 0 mm 1 mps 632 mmHg 79%
    08:00 0°C° 0 mm 1 mps 633 mmHg 74%
    09:00 +2°C° 0 mm 1 mps 633 mmHg 69%
    10:00 +4°C° 0 mm 1 mps 634 mmHg 64%
    11:00 +5°C° 0 mm 1 mps 634 mmHg 63%
    12:00 +6°C° 0 mm 1 mps 634 mmHg 62%
    13:00 +7°C° 0 mm 1 mps 635 mmHg 61%
    14:00 +7°C° 0 mm 1 mps 634 mmHg 62%
    15:00 +7°C° 0 mm 1 mps 634 mmHg 64%
    16:00 +7°C° 0 mm 1 mps 634 mmHg 65%
    17:00 +5°C° 0 mm 1 mps 634 mmHg 72%
    18:00 +2°C° 0 mm 0 mps 634 mmHg 79%
    19:00 +1°C° 0 mm 0 mps 633 mmHg 87%
    20:00 +1°C° 0 mm 1 mps 634 mmHg 85%
    21:00 +1°C° 0 mm 1 mps 634 mmHg 84%
    22:00 -1°C° 0 mm 2 mps 635 mmHg 83%
    23:00 -1°C° 0 mm 2 mps 635 mmHg 82%

    5 April, Sunday

    Time Temperature Precipitation Wind Pressure Humidity
    00:00 -1°C° 0 mm 2 mps 635 mmHg 81%
    01:00 -1°C° 0 mm 2 mps 635 mmHg 79%
    02:00 -1°C° 0 mm 2 mps 635 mmHg 79%
    03:00 -2°C° 0 mm 2 mps 635 mmHg 78%
    04:00 -2°C° 0 mm 2 mps 635 mmHg 77%
    05:00 -1°C° 0 mm 2 mps 635 mmHg 75%
    06:00 -1°C° 0 mm 2 mps 636 mmHg 73%
    07:00 -1°C° 0 mm 2 mps 636 mmHg 71%
    08:00 +3°C° 0 mm 2 mps 636 mmHg 66%
    09:00 +6°C° 0 mm 1 mps 637 mmHg 61%
    10:00 +8°C° 0 mm 1 mps 637 mmHg 56%
    11:00 +9°C° 0 mm 1 mps 637 mmHg 53%
    12:00 +10°C° 0 mm 1 mps 637 mmHg 50%
    13:00 +12°C° 0 mm 1 mps 638 mmHg 47%
    14:00 +12°C° 0 mm 1 mps 637 mmHg 48%
    15:00 +12°C° 0 mm 1 mps 637 mmHg 49%
    16:00 +12°C° 0 mm 1 mps 637 mmHg 50%
    17:00 +8°C° 0 mm 2 mps 636 mmHg 59%
    18:00 +6°C° 0 mm 2 mps 635 mmHg 68%
    19:00 +3°C° 0 mm 2 mps 635 mmHg 77%
    20:00 +3°C° 0 mm 2 mps 635 mmHg 79%
    21:00 +2°C° 0 mm 3 mps 635 mmHg 81%
    22:00 +1°C° 0 mm 3 mps 636 mmHg 83%
    23:00 +1°C° 0 mm 3 mps 636 mmHg 84%

    6 April, Monday

    Time Temperature Precipitation Wind Pressure Humidity
    00:00 +1°C° 0 mm 3 mps 636 mmHg 85%
    01:00 0°C° 0 mm 3 mps 636 mmHg 86%
    02:00 0°C° 0 mm 3 mps 636 mmHg 85%
    03:00 0°C° 0 mm 3 mps 636 mmHg 84%
    04:00 0°C° 0 mm 3 mps 636 mmHg 83%
    05:00 0°C° 0 mm 3 mps 636 mmHg 80%
    06:00 +2°C° 0 mm 2 mps 636 mmHg 77%
    07:00 +2°C° 0 mm 2 mps 637 mmHg 74%
    08:00 +4°C° 0 mm 2 mps 637 mmHg 66%
    09:00 +6°C° 0 mm 2 mps 638 mmHg 58%
    10:00 +9°C° 0 mm 1 mps 638 mmHg 50%
    11:00 +10°C° 0 mm 1 mps 639 mmHg 46%
    12:00 +11°C° 0 mm 1 mps 639 mmHg 43%
    13:00 +12°C° 0 mm 2 mps 639 mmHg 40%
    14:00 +12°C° 0 mm 2 mps 639 mmHg 42%
    15:00 +12°C° 0 mm 2 mps 639 mmHg 43%
    16:00 +12°C° 0 mm 2 mps 639 mmHg 45%
    17:00 +9°C° 0 mm 2 mps 638 mmHg 55%
    18:00 +6°C° 0 mm 2 mps 638 mmHg 65%
    19:00 +4°C° 0 mm 2 mps 637 mmHg 75%
    20:00 +3°C° 0 mm 2 mps 637 mmHg 77%
    21:00 +3°C° 0 mm 2 mps 638 mmHg 78%
    22:00 +4°C° 0 mm 1 mps 638 mmHg 79%
    23:00 +3°C° 0 mm 1 mps 638 mmHg 81%
    Show more